Regional Weather Roundup
Issued by NWS

Home | Current Version | Previous Version | Graphics & Text | Print | Product List | Glossary On
Versions: 1 2 3 4 5 6 7 8 9 10 11 12 13 14 15 16 17 18 19 20 21 22 23 24 25 26 27 28 29 30 31 32 33 34 35 36 37 38 39 40 41 42 43 44 45 46 47 48 49 50
000
ASUS45 KBOU 190807
RWRCO

WEATHER ROUNDUP FOR COLORADO
NATIONAL WEATHER SERVICE DENVER/BOULDER CO
200 AM MDT TUE AUG 19 2014

NOTE: "FAIR" INDICATES FEW OR NO CLOUDS BELOW 12000 FEET WITH NO
SIGNIFICANT WEATHER AND/OR OBSTRUCTIONS TO VISIBILITY.

COZ001>005-013-030-031-190900-
...NORTHWEST COLORADO...

CITY           SKY/WX    TMP DP  RH WIND       PRES   REMARKS
CRAIG          MOCLDY    64  41  42 NE13G21   30.04F
HAYDEN         MOCLDY    55  39  54 N8        30.09F
MEEKER         MOCLDY    59  40  49 NE12      30.08F
MOUNT WERNER   NOT AVBL
STEAMBOAT SPGS MOCLDY    50  42  73 CALM      30.16R
WALDEN         CLEAR     43  34  70 CALM      30.22S
$$

COZ006>008-011-190900-
...WEST CENTRAL VALLEYS...

CITY           SKY/WX    TMP DP  RH WIND       PRES   REMARKS
GRAND JUNCTION CLOUDY    76  38  25 MISG      29.96S
MONTROSE       CLOUDY    78  41  26 VRB7G21   30.08R
EAGLE          PTCLDY    54  39  58 CALM      30.16S
RIFLE          MOCLDY    62  44  51 W5        30.02S
DELTA          CLOUDY    72  50  46 E9        30.03R
NUCLA          CLOUDY    72  45  37 S7        30.15S
$$

COZ017>023-064>068-190900-
...SOUTHWEST COLORADO...

CITY           SKY/WX    TMP DP  RH WIND       PRES   REMARKS
DURANGO        CLOUDY    63  52  67 W10       30.20R
CORTEZ         CLOUDY    71  48  43 E10       30.14R
PAGOSA SPRINGS CLOUDY    64  42  43 SE3       30.27S
TELLURIDE      NOT AVBL
WOLF CREEK PAS NOT AVBL
$$

COZ009-010-012-014-032>034-037-058>063-190900-
...CENTRAL COLORADO...

CITY           SKY/WX    TMP DP  RH WIND       PRES   REMARKS
ASPEN          MOCLDY    59  38  45 S7        30.19F
BUENA VISTA    MOCLDY    55  38  53 NW8       30.25F
COPPER MTN     CLEAR     54  30  40 S18       30.53F
BERTHOUD PASS  FAIR      45  45 100 SW8       30.57F
COTTONWOOD PAS MOCLDY    59  32  36 S7        30.38F
GUNNISON       CLOUDY    55  37  50 N9        30.25F
KREMMLING      CLEAR     46  36  66 CALM      30.21F
LEADVILLE      PTCLDY    38  33  82 N3        30.37F
MONARCH PASS   CLOUDY    46  34  61 S14       30.63F
SALIDA         MOCLDY    67  40  37 S8G17     30.29S
SUNLIGHT       MOCLDY    55  34  44 CALM      30.43F
WILKERSON PASS PTCLDY    48  32  53 SW6       30.51F
$$

COZ069>075-190900-
...SAN LUIS VALLEY/SANGRE DE CRISTO MOUNTAINS...

CITY           SKY/WX    TMP DP  RH WIND       PRES   REMARKS
ALAMOSA        CLOUDY    57  44  62 SE5       30.24F
LA VETA PASS   CLOUDY    54  37  54 S6        30.40F
SAGUACHE       CLOUDY    57  45  62 CALM      30.26F
$$

COZ035-036-038>040-190900-
...NORTHERN COLORADO FRONT RANGE...

CITY           SKY/WX    TMP DP  RH WIND       PRES   REMARKS
DENVER INTL AP PTCLDY    56  47  71 S13       30.06F
DMNS CITY PARK   N/A     61  50  66 S3        30.05F
AURORA         PTCLDY    59  47  64 S8        30.08F
FRONT RANGE AP PTCLDY    63  50  63 SW8       30.07F
ERIE MUNI ARPT CLEAR     58  50  75 CALM      30.03F
BOULDER MUN AP CLEAR     64  46  52 W6        30.04F
CENTENNIAL     PTCLDY    61  46  57 S5        30.10F
BROOMFIELD     CLEAR     63  46  55 CALM      30.07F
FORT COLLINS   CLEAR     61  50  67 E6        30.05F
LONGMONT       CLEAR     60  49  68 W6        30.04F
$$

COZ041-046-047-076>085-087-088-190900-
...PIKES PEAK/PALMER DIVIDE AND SOUTHERN FOOTHILLS...

CITY           SKY/WX    TMP DP  RH WIND       PRES   REMARKS
COLO. SPRINGS  MOCLDY    62  48  60 NW7       30.13F
A. F. ACADEMY  PTCLDY    56  45  65 N7        30.15F
ELLICOTT       MOCLDY    62  50  64 E14       30.08F
FALCON         MOCLDY    59  48  67 NW6       30.17F
FORT CARSON    MOCLDY    63  46  55 NW6       30.10F
LIMON          MOCLDY    61  54  77 S5        30.05F
MONUMENT HILL  MOCLDY    54  45  71 SW9       30.17F
TRINIDAD       MOCLDY    70  42  36 SW17      30.06S
$$

COZ042>045-048>051-090-091-190900-
...NORTHEAST COLORADO...

CITY           SKY/WX    TMP DP  RH WIND       PRES   REMARKS
GREELEY ARPT   CLEAR     57  48  72 NE3       30.03F
AKRON          PTCLDY    65  54  67 S12G21    30.00F
BURLINGTON     MOCLDY    65  57  75 SE10      29.96F
WRAY             N/A     63  53  72 NW7       29.95S
STERLING       PTCLDY    63  59  88 SW5       29.95S
HOLYOKE        NOT AVBL
FORT MORGAN    PTCLDY    58  53  84 W7        30.02S
$$

COZ086-089-092>099-190900-
...SOUTHEAST COLORADO...

CITY           SKY/WX    TMP DP  RH WIND       PRES   REMARKS
PUEBLO         CLOUDY    67  45  45 N8        30.01S
LA JUNTA       MOCLDY    64  50  60 NW5       29.91F
LAMAR          PTCLDY    70  47  43 E7        29.87F
SPRINGFIELD      N/A     67  46  47 SW9       29.97F
$$


USA.gov is the U.S. government's official web portal to all federal, state and local government web resources and services.